SCP
0 0 0 0 0 0 0 0 0 0 2 4 5 5 2 2 3 2 1 1 2 3 2 2 3 2 1 0 0 0 0 0 0 0 0 0 0 0 1 1 1 2 1
0 0 0 0 0 0 0 0 0 1 0 4 3 4 5 2 1 1 2 1 1 1 4 3 2 2 1 1 0 0 0 0 0 1 1 1 0 -0 -0 1 1 2 2
0 0 0 0 0 0 0 0 0 0 0 0 2 5 6 6 3 1 1 1 0 0 1 3 4 2 1 1 1 1 1 0 0 0 2 2 0 0 -0 -0 1 1 2
0 0 0 0 0 0 0 0 0 0 0 0 0 0 2 4 3 2 2 1 1 1 0 2 2 2 2 1 1 1 1 1 1 1 2 4 2 1 0 0 1 1 1
0 0 0 0 0 0 0 0 0 0 0 0 0 0 1 1 1 1 1 3 2 2 1 1 2 3 1 1 1 1 1 1 1 3 1 0 0 0 0 0 0 0 1
0 0 0 0 0 0 0 0 0 0 0 0 0 0 0 1 0 0 0 0 1 2 4 1 2 2 1 2 1 1 1 1 1 3 1 0 0 1 1 1 1 1 1
0 0 0 0 0 0 0 0 0 0 0 0 0 0 0 1 0 0 0 0 0 1 6 5 2 3 1 0 1 1 2 2 2 2 1 1 1 2 1 1 1 1 1
0 0 0 0 0 0 0 0 0 0 0 0 0 0 0 0 0 1 0 0 0 0 0 1 4 3 1 1 2 1 0 1 2 2 2 1 1 3 1 2 1 1 0
0 0 0 0 0 0 0 0 0 0 0 0 0 0 0 0 0 0 0 1 0 0 0 0 1 2 3 1 1 2 1 1 2 2 2 2 3 3 2 1 1 0 1
0 0 0 0 0 0 0 0 0 0 0 0 0 0 0 0 0 0 0 0 0 1 0 0 0 0 0 3 4 3 2 3 5 4 3 3 4 3 2 1 1 1 0
0 0 0 0 0 0 0 0 0 0 0 0 0 0 0 0 0 0 0 1 1 1 1 1 0 0 1 1 4 5 6 5 4 4 5 4 4 3 1 1 1 0 1
0 0 0 0 0 0 0 0 0 0 0 0 0 0 0 0 0 0 0 0 0 0 1 1 1 1 1 1 1 3 4 3 4 4 5 3 3 2 2 1 1 1 0
0 0 0 0 0 0 0 0 0 0 0 0 0 0 0 0 0 0 0 0 0 0 0 0 0 0 1 1 1 1 2 2 3 4 4 2 2 2 2 1 1 1 1
-0 0 0 0 0 0 0 0 0 0 0 0 0 0 0 0 0 0 0 -0 -0 0 0 0 0 0 0 0 1 1 1 1 2 3 3 2 2 2 2 1 1 1 1
0 0 0 0 0 0 0 0 0 0 0 0 0 0 0 0 0 0 0 0 0 0 0 0 0 0 0 0 0 0 0 2 3 3 2 2 2 1 2 2 1 1 0
0 0 0 0 0 0 0 0 0 0 0 0 0 0 0 0 0 0 0 0 0 0 0 0 0 0 0 0 0 0 1 2 2 2 2 2 1 1 1 2 1 0 0
0 0 0 0 0 -0 0 0 0 0 0 0 0 0 0 0 0 0 0 0 0 0 0 0 0 0 0 0 0 0 0 1 2 2 2 1 1 1 0 0 0 0 0
0 0 0 0 0 0 0 0 0 0 0 0 0 0 0 0 0 0 0 0 0 0 0 0 0 0 0 0 0 0 0 0 1 2 1 1 0 0 0 0 0 0 0
0 0 0 0 0 0 0 0 0 0 0 0 0 0 0 0 0 0 0 0 0 0 0 0 0 0 0 0 0 0 0 0 1 1 1 1 0 0 0 0 0 0 0
0 0 0 0 0 0 0 0 0 0 0 0 0 0 0 0 0 0 0 0 0 0 0 0 0 0 0 0 0 0 0 0 1 2 1 1 0 0 0 0 0 0 0
0 0 0 0 0 0 0 0 0 0 0 0 0 0 0 0 0 0 0 0 0 0 0 0 0 0 0 0 0 0 0 1 1 0 0 0 0 0 0 0 0 0 0
0 0 0 0 0 0 0 0 0 0 0 0 0 0 0 0 0 0 0 0 0 0 0 0 0 -0 0 0 0 0 0 1 1 0 0 0 0 0 0 0 0 0 0
-0 -0 0 0 0 0 0 0 0 0 0 0 0 0 0 0 0 0 0 0 0 0 0 0 0 0 -0 -0 0 0 0 0 1 0 0 0 0 0 0 0 0 0 0
-0 0 0 0 0 0 0 0 0 0 0 0 0 0 0 0 0 0 0 -0 -0 -0 0 0 0 0 0 0 0 0 0 0 0 0 0 0 0 0 0 0 0 0 0
0 0 0 -0 -0 -0 -0 -0 -0 0 -0 0 0 0 0 0 0 0 0 0 0 0 0 0 0 0 0 0 0 0 0 0 0 0 0 0 0 0 0 0 0 0 0
0 -0 -0 -0 -0 0 -0 0 0 -0 -0 0 -0 -0 -0 -0 -0 -0 0 0 0 0 0 0 0 0 0 0 0 0 0 0 0 0 0 0 0 0 0 0 0 0 0
Wind_Speed_500mb
25 23 21 54 57 50 49 49 42 42 59 64 64 52 41 73 73 76 58 59 47 43 50 57 54 53 57 48 54 50 55 59 49 60 61 51 48 54 74 69 52 53 49
31 26 26 56 48 45 37 41 45 37 50 58 67 66 68 54 54 59 57 37 44 62 55 57 62 53 60 43 45 49 51 62 55 54 39 40 52 85 79 67 52 54 54
57 45 49 51 43 34 29 31 32 33 29 51 56 65 54 60 63 51 40 38 36 30 64 67 71 72 67 59 53 60 81 77 56 57 31 18 24 68 80 60 43 42 49
63 65 61 60 47 38 32 27 33 34 39 36 47 66 63 55 57 56 59 51 42 50 35 47 63 73 77 81 75 75 84 83 59 49 48 50 50 44 61 74 48 34 39
58 67 54 53 38 26 24 17 25 36 34 40 49 46 46 44 37 39 57 73 64 61 70 54 54 73 68 75 76 81 89 89 63 56 48 55 58 62 75 88 66 45 42
46 44 39 35 30 25 24 30 30 40 38 33 39 51 49 51 51 40 37 45 74 79 97 90 75 57 70 83 87 91 83 80 73 72 66 73 77 64 64 56 76 58 51
56 44 41 34 22 26 30 30 24 33 32 29 31 32 43 54 53 56 57 53 48 64 79 85 74 72 66 81 92 95 95 93 88 83 76 81 78 67 63 62 72 55 56
44 43 38 33 34 36 36 41 33 27 17 19 24 26 25 27 38 52 47 54 60 54 55 54 56 62 63 99 89 87 78 75 79 79 77 83 85 72 69 64 66 57 47
38 47 39 37 33 41 45 41 30 24 19 18 21 17 17 23 28 26 36 42 46 58 63 57 57 52 53 61 65 72 71 74 72 74 83 80 78 73 56 67 66 65 54
40 35 27 20 16 28 28 31 34 39 37 39 29 23 22 21 18 20 25 28 31 37 46 57 63 68 65 58 59 63 61 74 70 73 78 79 71 70 60 68 61 66 66
33 30 24 22 28 30 39 40 41 41 36 37 36 32 32 30 25 28 28 32 36 37 39 47 59 68 71 68 60 62 65 72 72 73 77 74 72 67 59 62 66 65 62
39 28 29 42 37 33 29 22 28 32 34 28 24 36 37 31 36 38 40 41 47 49 50 48 54 60 61 67 76 71 71 73 75 79 77 77 70 62 53 52 63 57 43
27 38 27 49 45 48 40 38 28 26 28 27 29 22 26 30 34 38 41 43 44 52 58 59 64 60 62 59 64 75 79 77 75 83 75 78 65 60 51 55 58 45 39
48 47 34 36 50 44 42 41 42 40 34 37 38 34 32 34 39 49 55 58 61 66 70 68 64 66 64 63 61 67 72 77 71 72 75 72 64 63 55 55 59 47 43
55 49 28 27 38 31 48 45 50 48 46 49 49 52 48 45 41 43 53 67 66 62 62 66 66 64 66 68 61 64 73 75 71 74 70 67 62 55 54 52 53 52 49
25 16 35 28 35 19 15 14 24 26 30 31 35 42 51 57 60 62 64 66 70 71 69 67 72 74 72 69 68 58 72 72 74 76 75 70 57 56 54 53 51 47 57
25 18 15 16 29 34 37 35 32 36 37 41 46 46 52 63 73 78 78 80 79 81 80 75 74 73 69 68 69 69 68 73 78 78 71 65 58 56 48 53 51 44 48
27 31 27 40 48 48 51 42 41 48 56 62 66 67 63 64 69 76 84 87 73 77 84 84 78 74 74 72 68 71 73 65 79 70 72 64 53 50 46 50 46 46 42
40 40 50 56 63 64 64 62 54 58 62 70 70 65 72 86 83 88 98 104 103 103 93 88 79 79 76 77 70 66 73 69 74 71 61 61 53 51 49 49 44 43 40
47 54 60 61 69 71 71 68 70 75 82 75 74 85 83 82 80 76 79 79 73 81 80 86 79 83 79 81 73 65 69 66 71 60 61 50 48 45 42 38 34 36 32
51 48 59 68 71 71 65 72 71 67 62 59 71 76 79 84 88 86 92 97 86 89 69 77 78 73 78 82 73 66 66 63 67 57 58 50 43 43 41 37 36 35 30
73 77 83 86 77 73 73 79 75 73 77 77 80 84 83 78 70 71 68 64 64 80 68 72 79 80 80 84 74 65 63 71 63 58 54 48 46 44 40 31 43 40 33
78 76 69 66 67 70 71 75 71 68 70 66 71 74 66 65 64 64 64 64 63 69 67 71 81 88 81 78 63 58 62 71 58 62 50 46 50 38 34 38 31 32 28
76 75 70 65 65 59 53 57 60 61 63 63 72 62 59 61 58 60 61 62 69 71 76 75 75 78 69 68 58 57 61 44 52 56 46 45 35 29 32 32 30 30 25
70 66 58 62 69 68 73 75 71 65 61 63 64 62 65 64 62 56 57 64 76 75 71 71 69 62 65 67 56 75 73 78 70 54 48 45 33 35 35 30 27 25 25
69 67 69 70 68 64 68 74 63 56 55 59 69 66 61 61 58 58 58 59 66 66 68 71 61 60 63 58 74 61 75 76 66 59 53 42 37 39 38 34 30 29 29
Wind_Direction_500mb
224 245 215 210 203 207 214 222 230 223 222 224 216 203 226 221 220 214 228 222 227 237 248 254 254 255 248 250 251 260 268 272 276 283 276 288 300 316 309 289 285 285 286
232 222 210 195 194 199 204 218 228 226 224 226 225 221 215 224 225 222 213 219 234 232 248 258 255 260 253 255 255 266 280 277 274 267 276 296 295 301 313 289 277 284 278
211 209 189 190 188 199 207 220 233 235 234 224 225 230 225 221 235 240 233 226 236 244 238 253 262 266 257 253 264 277 291 288 286 270 249 258 281 309 300 300 289 279 271
213 208 198 195 192 195 215 229 236 239 243 238 228 231 232 227 234 253 252 241 233 235 248 266 266 264 266 259 273 282 273 270 274 260 257 254 267 292 284 274 285 266 262
200 212 189 167 173 174 175 192 243 260 263 247 234 227 233 234 227 239 248 249 247 240 238 272 277 265 275 273 269 273 271 262 264 259 251 249 249 275 261 274 276 273 258
160 162 166 166 159 178 206 216 234 249 259 245 237 233 230 246 251 259 261 246 239 248 240 253 264 273 279 270 271 268 267 269 270 262 252 255 267 252 267 259 265 278 270
149 146 166 175 199 224 225 229 241 243 239 249 244 244 243 242 244 246 247 248 240 233 235 240 248 247 251 268 269 265 264 271 273 263 258 258 253 263 262 264 261 272 272
147 158 170 196 213 209 213 215 222 225 237 272 259 251 258 254 246 237 241 245 235 233 228 234 241 238 226 256 261 261 264 267 266 260 262 258 256 254 250 254 262 260 261
159 173 170 158 164 193 208 207 201 190 225 247 262 275 284 272 262 254 251 250 240 240 240 242 240 247 256 259 261 263 260 263 269 269 265 259 260 260 254 246 250 257 254
132 143 149 157 176 194 197 210 228 245 252 245 243 257 271 276 270 261 256 260 261 259 252 250 252 248 251 261 259 263 261 263 265 270 267 262 261 262 255 244 251 255 261
167 159 166 205 225 231 230 226 230 235 231 221 236 258 244 256 263 266 267 274 278 273 269 261 256 255 256 252 256 257 259 260 267 270 263 262 262 262 259 243 245 254 258
170 189 226 215 207 218 212 213 216 214 218 223 249 246 239 250 257 262 267 269 270 273 275 273 270 265 261 256 251 255 257 260 267 264 261 261 262 258 250 242 244 249 250
328 326 321 217 227 218 216 213 219 221 229 236 242 233 235 244 257 261 263 265 268 269 270 270 270 274 266 264 259 258 257 260 265 262 260 256 253 256 241 236 242 243 237
272 300 307 331 215 208 214 222 219 220 224 234 247 261 263 266 266 266 267 269 273 276 277 276 275 270 272 263 267 264 262 259 260 262 255 253 255 251 238 233 238 243 231
256 285 297 330 284 265 242 230 232 238 246 245 238 242 249 252 261 269 272 274 279 280 280 278 277 276 271 265 261 265 259 262 257 257 254 250 248 237 234 237 240 238 227
263 326 355 331 353 310 215 170 186 188 197 217 235 245 249 253 258 262 267 272 278 284 281 277 275 274 275 267 255 258 262 258 254 252 248 247 234 229 233 238 241 237 223
349 333 338 342 245 287 289 277 281 276 261 254 255 261 264 265 265 268 270 274 278 280 281 278 275 273 274 268 260 252 252 257 252 247 246 230 227 222 235 236 234 227 223
319 315 309 298 290 289 288 295 288 280 279 277 270 264 260 260 263 264 267 271 272 276 277 276 273 272 273 269 267 252 249 256 247 241 229 223 223 220 226 237 235 221 219
306 305 297 292 296 290 289 291 280 272 273 271 270 271 275 277 273 270 265 262 263 270 270 272 270 269 269 267 266 256 250 249 241 229 220 213 218 229 226 233 228 233 234
293 291 289 286 282 282 285 283 275 272 271 269 271 279 278 274 268 263 260 261 259 261 263 266 265 266 264 266 266 260 248 245 226 217 211 214 219 221 216 214 217 221 224
293 279 278 281 284 280 278 271 268 260 262 267 270 268 273 272 272 268 262 263 263 254 262 263 263 261 260 268 266 253 239 229 213 203 207 204 205 205 203 215 220 224 226
290 290 288 284 279 272 268 269 271 273 274 274 269 271 275 273 270 262 264 264 261 249 260 258 259 260 263 265 258 241 229 211 198 204 211 201 194 197 212 218 222 227 228
291 293 287 281 278 275 272 269 271 273 271 264 268 275 274 272 265 262 261 255 256 254 256 259 262 264 268 265 250 230 209 203 193 209 208 188 193 206 229 228 215 215 212
290 289 282 279 281 282 270 264 266 268 271 269 275 274 272 271 265 259 258 253 250 253 257 261 261 262 267 257 235 203 187 190 207 200 178 187 191 198 207 199 204 210 205
288 285 276 280 279 275 276 275 275 273 269 269 270 268 268 267 267 262 258 250 246 248 255 254 260 259 245 236 214 187 182 192 193 172 178 181 184 188 181 180 186 179 176
287 282 278 279 277 272 271 274 272 265 263 261 263 264 259 258 260 261 259 256 255 255 250 262 252 248 225 221 187 186 193 190 184 180 177 176 183 178 170 163 157 154 160
Wind_Speed_850mb
25 23 21 54 57 50 49 49 42 42 59 64 64 52 41 73 73 76 58 59 47 43 50 57 54 53 57 48 54 50 55 59 49 60 61 51 48 54 74 69 52 53 49
31 26 26 56 48 45 37 41 45 37 50 58 67 66 68 54 54 59 57 37 44 62 55 57 62 53 60 43 45 49 51 62 55 54 39 40 52 85 79 67 52 54 54
57 45 49 51 43 34 29 31 32 33 29 51 56 65 54 60 63 51 40 38 36 30 64 67 71 72 67 59 53 60 81 77 56 57 31 18 24 68 80 60 43 42 49
63 65 61 60 47 38 32 27 33 34 39 36 47 66 63 55 57 56 59 51 42 50 35 47 63 73 77 81 75 75 84 83 59 49 48 50 50 44 61 74 48 34 39
58 67 54 53 38 26 24 17 25 36 34 40 49 46 46 44 37 39 57 73 64 61 70 54 54 73 68 75 76 81 89 89 63 56 48 55 58 62 75 88 66 45 42
46 44 39 35 30 25 24 30 30 40 38 33 39 51 49 51 51 40 37 45 74 79 97 90 75 57 70 83 87 91 83 80 73 72 66 73 77 64 64 56 76 58 51
56 44 41 34 22 26 30 30 24 33 32 29 31 32 43 54 53 56 57 53 48 64 79 85 74 72 66 81 92 95 95 93 88 83 76 81 78 67 63 62 72 55 56
44 43 38 33 34 36 36 41 33 27 17 19 24 26 25 27 38 52 47 54 60 54 55 54 56 62 63 99 89 87 78 75 79 79 77 83 85 72 69 64 66 57 47
38 47 39 37 33 41 45 41 30 24 19 18 21 17 17 23 28 26 36 42 46 58 63 57 57 52 53 61 65 72 71 74 72 74 83 80 78 73 56 67 66 65 54
40 35 27 20 16 28 28 31 34 39 37 39 29 23 22 21 18 20 25 28 31 37 46 57 63 68 65 58 59 63 61 74 70 73 78 79 71 70 60 68 61 66 66
33 30 24 22 28 30 39 40 41 41 36 37 36 32 32 30 25 28 28 32 36 37 39 47 59 68 71 68 60 62 65 72 72 73 77 74 72 67 59 62 66 65 62
39 28 29 42 37 33 29 22 28 32 34 28 24 36 37 31 36 38 40 41 47 49 50 48 54 60 61 67 76 71 71 73 75 79 77 77 70 62 53 52 63 57 43
27 38 27 49 45 48 40 38 28 26 28 27 29 22 26 30 34 38 41 43 44 52 58 59 64 60 62 59 64 75 79 77 75 83 75 78 65 60 51 55 58 45 39
48 47 34 36 50 44 42 41 42 40 34 37 38 34 32 34 39 49 55 58 61 66 70 68 64 66 64 63 61 67 72 77 71 72 75 72 64 63 55 55 59 47 43
55 49 28 27 38 31 48 45 50 48 46 49 49 52 48 45 41 43 53 67 66 62 62 66 66 64 66 68 61 64 73 75 71 74 70 67 62 55 54 52 53 52 49
25 16 35 28 35 19 15 14 24 26 30 31 35 42 51 57 60 62 64 66 70 71 69 67 72 74 72 69 68 58 72 72 74 76 75 70 57 56 54 53 51 47 57
25 18 15 16 29 34 37 35 32 36 37 41 46 46 52 63 73 78 78 80 79 81 80 75 74 73 69 68 69 69 68 73 78 78 71 65 58 56 48 53 51 44 48
27 31 27 40 48 48 51 42 41 48 56 62 66 67 63 64 69 76 84 87 73 77 84 84 78 74 74 72 68 71 73 65 79 70 72 64 53 50 46 50 46 46 42
40 40 50 56 63 64 64 62 54 58 62 70 70 65 72 86 83 88 98 104 103 103 93 88 79 79 76 77 70 66 73 69 74 71 61 61 53 51 49 49 44 43 40
47 54 60 61 69 71 71 68 70 75 82 75 74 85 83 82 80 76 79 79 73 81 80 86 79 83 79 81 73 65 69 66 71 60 61 50 48 45 42 38 34 36 32
51 48 59 68 71 71 65 72 71 67 62 59 71 76 79 84 88 86 92 97 86 89 69 77 78 73 78 82 73 66 66 63 67 57 58 50 43 43 41 37 36 35 30
73 77 83 86 77 73 73 79 75 73 77 77 80 84 83 78 70 71 68 64 64 80 68 72 79 80 80 84 74 65 63 71 63 58 54 48 46 44 40 31 43 40 33
78 76 69 66 67 70 71 75 71 68 70 66 71 74 66 65 64 64 64 64 63 69 67 71 81 88 81 78 63 58 62 71 58 62 50 46 50 38 34 38 31 32 28
76 75 70 65 65 59 53 57 60 61 63 63 72 62 59 61 58 60 61 62 69 71 76 75 75 78 69 68 58 57 61 44 52 56 46 45 35 29 32 32 30 30 25
70 66 58 62 69 68 73 75 71 65 61 63 64 62 65 64 62 56 57 64 76 75 71 71 69 62 65 67 56 75 73 78 70 54 48 45 33 35 35 30 27 25 25
69 67 69 70 68 64 68 74 63 56 55 59 69 66 61 61 58 58 58 59 66 66 68 71 61 60 63 58 74 61 75 76 66 59 53 42 37 39 38 34 30 29 29
Wind_Direction_850mb
224 245 215 210 203 207 214 222 230 223 222 224 216 203 226 221 220 214 228 222 227 237 248 254 254 255 248 250 251 260 268 272 276 283 276 288 300 316 309 289 285 285 286
232 222 210 195 194 199 204 218 228 226 224 226 225 221 215 224 225 222 213 219 234 232 248 258 255 260 253 255 255 266 280 277 274 267 276 296 295 301 313 289 277 284 278
211 209 189 190 188 199 207 220 233 235 234 224 225 230 225 221 235 240 233 226 236 244 238 253 262 266 257 253 264 277 291 288 286 270 249 258 281 309 300 300 289 279 271
213 208 198 195 192 195 215 229 236 239 243 238 228 231 232 227 234 253 252 241 233 235 248 266 266 264 266 259 273 282 273 270 274 260 257 254 267 292 284 274 285 266 262
200 212 189 167 173 174 175 192 243 260 263 247 234 227 233 234 227 239 248 249 247 240 238 272 277 265 275 273 269 273 271 262 264 259 251 249 249 275 261 274 276 273 258
160 162 166 166 159 178 206 216 234 249 259 245 237 233 230 246 251 259 261 246 239 248 240 253 264 273 279 270 271 268 267 269 270 262 252 255 267 252 267 259 265 278 270
149 146 166 175 199 224 225 229 241 243 239 249 244 244 243 242 244 246 247 248 240 233 235 240 248 247 251 268 269 265 264 271 273 263 258 258 253 263 262 264 261 272 272
147 158 170 196 213 209 213 215 222 225 237 272 259 251 258 254 246 237 241 245 235 233 228 234 241 238 226 256 261 261 264 267 266 260 262 258 256 254 250 254 262 260 261
159 173 170 158 164 193 208 207 201 190 225 247 262 275 284 272 262 254 251 250 240 240 240 242 240 247 256 259 261 263 260 263 269 269 265 259 260 260 254 246 250 257 254
132 143 149 157 176 194 197 210 228 245 252 245 243 257 271 276 270 261 256 260 261 259 252 250 252 248 251 261 259 263 261 263 265 270 267 262 261 262 255 244 251 255 261
167 159 166 205 225 231 230 226 230 235 231 221 236 258 244 256 263 266 267 274 278 273 269 261 256 255 256 252 256 257 259 260 267 270 263 262 262 262 259 243 245 254 258
170 189 226 215 207 218 212 213 216 214 218 223 249 246 239 250 257 262 267 269 270 273 275 273 270 265 261 256 251 255 257 260 267 264 261 261 262 258 250 242 244 249 250
328 326 321 217 227 218 216 213 219 221 229 236 242 233 235 244 257 261 263 265 268 269 270 270 270 274 266 264 259 258 257 260 265 262 260 256 253 256 241 236 242 243 237
272 300 307 331 215 208 214 222 219 220 224 234 247 261 263 266 266 266 267 269 273 276 277 276 275 270 272 263 267 264 262 259 260 262 255 253 255 251 238 233 238 243 231
256 285 297 330 284 265 242 230 232 238 246 245 238 242 249 252 261 269 272 274 279 280 280 278 277 276 271 265 261 265 259 262 257 257 254 250 248 237 234 237 240 238 227
263 326 355 331 353 310 215 170 186 188 197 217 235 245 249 253 258 262 267 272 278 284 281 277 275 274 275 267 255 258 262 258 254 252 248 247 234 229 233 238 241 237 223
349 333 338 342 245 287 289 277 281 276 261 254 255 261 264 265 265 268 270 274 278 280 281 278 275 273 274 268 260 252 252 257 252 247 246 230 227 222 235 236 234 227 223
319 315 309 298 290 289 288 295 288 280 279 277 270 264 260 260 263 264 267 271 272 276 277 276 273 272 273 269 267 252 249 256 247 241 229 223 223 220 226 237 235 221 219
306 305 297 292 296 290 289 291 280 272 273 271 270 271 275 277 273 270 265 262 263 270 270 272 270 269 269 267 266 256 250 249 241 229 220 213 218 229 226 233 228 233 234
293 291 289 286 282 282 285 283 275 272 271 269 271 279 278 274 268 263 260 261 259 261 263 266 265 266 264 266 266 260 248 245 226 217 211 214 219 221 216 214 217 221 224
293 279 278 281 284 280 278 271 268 260 262 267 270 268 273 272 272 268 262 263 263 254 262 263 263 261 260 268 266 253 239 229 213 203 207 204 205 205 203 215 220 224 226
290 290 288 284 279 272 268 269 271 273 274 274 269 271 275 273 270 262 264 264 261 249 260 258 259 260 263 265 258 241 229 211 198 204 211 201 194 197 212 218 222 227 228
291 293 287 281 278 275 272 269 271 273 271 264 268 275 274 272 265 262 261 255 256 254 256 259 262 264 268 265 250 230 209 203 193 209 208 188 193 206 229 228 215 215 212
290 289 282 279 281 282 270 264 266 268 271 269 275 274 272 271 265 259 258 253 250 253 257 261 261 262 267 257 235 203 187 190 207 200 178 187 191 198 207 199 204 210 205
288 285 276 280 279 275 276 275 275 273 269 269 270 268 268 267 267 262 258 250 246 248 255 254 260 259 245 236 214 187 182 192 193 172 178 181 184 188 181 180 186 179 176
287 282 278 279 277 272 271 274 272 265 263 261 263 264 259 258 260 261 259 256 255 255 250 262 252 248 225 221 187 186 193 190 184 180 177 176 183 178 170 163 157 154 160